Location: Lavington
(51.2833°N, 1.9833°W)
Time: 18:05:46
(UTC+00:00)

EO 1 Del DPAF - Pass Details

Date: 01 June 2020
Orbit: 513 x 517 km, 98.0° (Epoch: 04 July)

Event Time Altitude Azimuth Distance (km) Brightness Sun altitude
Rises 23:11:33 0° 12° (NNE) 2,655 8.0 -15.5°
Reaches altitude 10° 23:13:40 10° 11° (N) 1,762 7.0 -15.6°
Maximum altitude 23:17:27 71° 287° (WNW) 553 3.3 -15.7°
Enters shadow 23:19:33 25° 208° (SSW) 1,080 4.4 -15.8°
